Weather History for Syracuse, NY

Change the Weather History Date:

Saturday, January 19, 2013

  Actual Average Record
Temperature  
Mean Temperature 40 °F 23 °F  
Max Temperature 50 °F 31 °F 64 °F (1996)
Min Temperature 30 °F 15 °F -20 °F (1904)
Degree Days  
Heating Degree Days 25 42  
Month to date heating degree days 636 785  
Since 1 July heating degree days 2754 3238  
Cooling Degree Days 0 0  
Month to date cooling degree days 0 0  
Year to date cooling degree days 0 0  
Moisture  
Dew Point 19 °F    
Average Humidity 43    
Maximum Humidity 55    
Minimum Humidity 31    
Precipitation  
Precipitation 0.00 in 0.08 in 1.15 in (1996)
Month to date precipitation 0.37 1.61  
Year to date precipitation 0.37 1.61  
Snow  
Snow 0.00 in 1.20 in 7.30 in (2004)
Month to date snowfall 5.8 20.7  
Since 1 July snowfall 41.0 63.3  
Snow Depth 0.00 in    
Sea Level Pressure  
Sea Level Pressure 29.91 in    
Wind  
Wind Speed 13 mph (SSW)    
Max Wind Speed 28 mph    
Max Gust Speed 35 mph    
Visibility 10 miles    
Events      
T = Trace of Precipitation, MM = Missing Value Source: NWS Daily Summary

Daily Weather History Graph

Daily Weather History Graph

Search for Another Location

Airport:

Trip Planner

Search our weather history database for the weather conditions in past years. The results will help you decide how hot, cold, wet, or windy it might be!

Date:

Astronomy

Jan. 19, 2013 Rise Set
Actual Time 7:30 AM EST 5:00 PM EST
Civil Twilight 6:59 AM EST 5:31 PM EST
Nautical Twilight 6:24 AM EST 6:06 PM EST
Astronomical Twilight 5:50 AM EST 6:40 PM EST
Moon 11:26 AM EST (1/19) 1:00 AM EST (1/19)
Length of Visible Light 10h 31m
Length of Day
9h 29m
First Quarter, 57% of the Moon is Illuminated
Jan 19
First Quarter
Jan 26
Full
Feb 3
Last Quarter
Feb 10
New
Feb 17
First Quarter

Hourly Weather History & Observations

Time (EST) Temp. Windchill Dew Point Humidity Pressure Visibility Wind Dir Wind Speed Gust Speed Precip Events Conditions
12:54 AM 32.0 °F 24.2 °F 12.0 °F 44% 30.08 in 10.0 mi South 9.2 mph - N/A   Overcast
1:54 AM 32.0 °F 25.6 °F 12.9 °F 45% 30.07 in 10.0 mi South 6.9 mph - N/A   Overcast
2:54 AM 34.0 °F 25.5 °F 12.9 °F 42% 30.05 in 10.0 mi South 11.5 mph - N/A   Overcast
3:54 AM 37.0 °F 27.4 °F 12.9 °F 37% 30.01 in 10.0 mi SSW 17.3 mph 28.8 mph N/A   Overcast
4:54 AM 37.9 °F 28.5 °F 15.1 °F 39% 29.99 in 10.0 mi SW 17.3 mph 33.4 mph N/A   Overcast
5:54 AM 39.0 °F 28.3 °F 16.0 °F 39% 29.98 in 10.0 mi South 24.2 mph 29.9 mph N/A   Overcast
6:54 AM 39.0 °F 29.6 °F 16.0 °F 39% 29.98 in 10.0 mi SSW 18.4 mph 26.5 mph N/A   Overcast
7:54 AM 39.0 °F 31.4 °F 16.0 °F 39% 29.98 in 10.0 mi SSW 12.7 mph 25.3 mph N/A   Mostly Cloudy
8:54 AM 39.0 °F 29.0 °F 17.1 °F 41% 29.98 in 10.0 mi SSW 20.7 mph 28.8 mph N/A   Mostly Cloudy
9:54 AM 41.0 °F 32.5 °F 18.0 °F 40% 29.99 in 10.0 mi SSW 17.3 mph 25.3 mph N/A   Mostly Cloudy
10:54 AM 42.1 °F 34.2 °F 18.0 °F 38% 29.98 in 10.0 mi SSW 16.1 mph 27.6 mph N/A   Mostly Cloudy
11:54 AM 43.0 °F 34.5 °F 19.0 °F 38% 29.95 in 10.0 mi SSW 19.6 mph 25.3 mph N/A   Mostly Cloudy
12:54 PM 46.0 °F 39.3 °F 21.0 °F 37% 29.93 in 10.0 mi SW 16.1 mph 23.0 mph N/A   Mostly Cloudy
1:54 PM 46.9 °F - 21.9 °F 37% 29.91 in 10.0 mi SSW 15.0 mph 23.0 mph N/A   Mostly Cloudy
2:54 PM 46.9 °F - 23.0 °F 39% 29.90 in 10.0 mi SSW 9.2 mph - N/A   Overcast
3:54 PM 46.0 °F 43.9 °F 25.0 °F 44% 29.88 in 10.0 mi SSW 4.6 mph - N/A   Overcast
4:54 PM 43.0 °F - 26.1 °F 51% 29.85 in 10.0 mi Calm Calm - N/A   Overcast
5:54 PM 41.0 °F 39.0 °F 26.1 °F 55% 29.83 in 10.0 mi SE 3.5 mph - N/A   Overcast
6:54 PM 45.0 °F 41.8 °F 26.1 °F 48% 29.80 in 10.0 mi SE 5.8 mph - N/A   Overcast
7:54 PM 46.0 °F 41.4 °F 23.0 °F 40% 29.76 in 10.0 mi South 9.2 mph - N/A   Overcast
8:54 PM 48.0 °F - 21.0 °F 34% 29.74 in 10.0 mi SSW 6.9 mph - N/A   Overcast
9:54 PM 48.9 °F - 19.9 °F 32% 29.71 in 10.0 mi SSW 12.7 mph 20.7 mph N/A   Overcast
10:54 PM 48.9 °F - 19.9 °F 32% 29.68 in 10.0 mi South 16.1 mph 24.2 mph N/A   Overcast
11:54 PM 48.0 °F - 19.9 °F 33% 29.63 in 10.0 mi South 13.8 mph - N/A   Mostly Cloudy